Regional Weather Roundup
Issued by NWS

Home | Current Version | Previous Version | Text Only | Print | Product List | Glossary Off
Versions: 1 2 3 4 5 6 7 8 9 10 11 12 13 14 15 16 17 18 19 20 21 22 23 24 25 26 27 28 29 30 31 32 33 34 35 36 37 38 39 40 41 42 43 44 45 46 47 48 49 50

000
ASUS43 KOAX 251802
RWRNE

WEATHER ROUNDUP FOR NEBRASKA
NATIONAL WEATHER SERVICE OMAHA NE
100 PM CDT FRI JUL 25 2014

NOTES: SATELLITE DATA IS BEING USED TO AUGMENT CLOUD COVER ABOVE
       12000 FEET.
       "FAIR" INDICATES FEW OR NO CLOUDS BELOW 12,000 FEET WITH NO
       SIGNIFICANT WEATHER AND/OR OBSTRUCTIONS TO VISIBILITY.

  * THESE STATIONS DO NOT REPORT WEATHER SUCH AS RAIN...SNOW OR FOG.

NEZ001>004-019>022-054>056-251900-
NEBRASKA PANHANDLE

CITY           SKY/WX    TMP DP  RH WIND       PRES   REMARKS
SCOTTSBLUFF    PTSUNNY   81  42  25 E6        30.03F
6HR MIN TEMP:  63; 6HR MAX TEMP:  82;

ALLIANCE       PTSUNNY   81  47  30 N14       30.01S
6HR MIN TEMP:  65; 6HR MAX TEMP:  82;

CHADRON        SUNNY     81  36  19 N12       29.99F
6HR MIN TEMP:  64; 6HR MAX TEMP:  81;

KIMBALL        PTSUNNY   76  56  49 NE5       30.07S
SIDNEY         MOSUNNY   84  49  29 NE10      30.04F
6HR MIN TEMP:  64; 6HR MAX TEMP:  84;

$$

NEZ057>060-069>072-079>082-251900-
SOUTHWEST NEBRASKA

CITY           SKY/WX    TMP DP  RH WIND       PRES   REMARKS
NORTH PLATTE   MOSUNNY   86  64  47 N6        29.90S
6HR MIN TEMP:  67; 6HR MAX TEMP:  86;

IMPERIAL       SUNNY     86  61  42 N13       29.96R
6HR MIN TEMP:  64; 6HR MAX TEMP:  87;

LEXINGTON      MOSUNNY   87  67  51 N10       29.86S
MCCOOK         MOSUNNY   90  64  42 N12       29.88S HX  91
6HR MIN TEMP:  65; 6HR MAX TEMP:  90;

OGALLALA       MOSUNNY   84  56  38 N10       29.96F
$$

NEZ005>010-023>029-035>040-094-251900-
NORTH CENTRAL NEBRASKA

CITY           SKY/WX    TMP DP  RH WIND       PRES   REMARKS
VALENTINE      SUNNY     83  65  54 N10       29.90F
6HR MIN TEMP:  70; 6HR MAX TEMP:  83;

AINSWORTH      MOSUNNY   82  68  63 N18       29.89S
BROKEN BOW     MOSUNNY   86  69  56 N14       29.86S HX  90
6HR MIN TEMP:  70; 6HR MAX TEMP:  86;

O`NEILL        SUNNY     87  66  48 NW14      29.82R HX  90
ORD            SUNNY     86  68  54 N12       29.81R
6HR MIN TEMP:  68; 6HR MAX TEMP:  86;

THEDFORD       MOSUNNY   83  65  55 N16       29.91F
$$

NEZ041-046>049-061>064-073>077-083>087-251900-
SOUTH CENTRAL NEBRASKA

CITY           SKY/WX    TMP DP  RH WIND       PRES   REMARKS
GRAND ISLAND   MOSUNNY   90  66  45 NW13      29.80R HX  92
6HR MIN TEMP:  79; 6HR MAX TEMP:  92;

AURORA         MOSUNNY   87  69  54 W6        29.78S HX  91
HASTINGS       MOSUNNY   90  62  39 NW10      29.80S HX  90
6HR MIN TEMP:  78; 6HR MAX TEMP:  91;

HEBRON         SUNNY     93  65  39 W6        29.78S HX  95
HOLDREGE       MOSUNNY   87  65  48 N7        29.84S
KEARNEY *      MOSUNNY   90  66  45 NW10      29.83S HX  92
YORK           SUNNY     90  70  51 W13       29.76F HX  95
$$

NEZ011>018-030>034-042>045-251900-
NORTHEAST NEBRASKA

CITY           SKY/WX    TMP DP  RH WIND       PRES   REMARKS
NORFOLK        SUNNY     87  71  58 CALM      29.75S HX  93
6HR MIN TEMP:  72; 6HR MAX TEMP:  88;

ALBION         SUNNY     85  70  60 NW13      29.78R HX  90
BLAIR          SUNNY     84  71  66 SE13      29.76R
COLUMBUS *     MOSUNNY   88  72  58 W5        29.75S HX  94
FREMONT        SUNNY     87  74  64 SE8       29.74F HX  95
WAYNE          PTSUNNY   84  73  68 SE5       29.76S HX  91
$$

NEZ050>053-065>068-078-088>093-251900-
SOUTHEAST NEBRASKA

CITY           SKY/WX    TMP DP  RH WIND       PRES   REMARKS
LINCOLN        SUNNY     94  69  44 SW8       29.74F HX  99
6HR MIN TEMP:  74; 6HR MAX TEMP:  95;

OMAHA EPPLEY   MOSUNNY   87  71  58 SE17      29.75S HX  93
6HR MIN TEMP:  72; 6HR MAX TEMP:  87;

BEATRICE       SUNNY     93  71  47 SW12      29.76R HX 100
FALLS CITY     SUNNY     96  73  47 S13       29.75F HX 105
6HR MIN TEMP:  71; 6HR MAX TEMP:  96;

NEBRASKA CITY  SUNNY     92  70  47 SW7       29.75F HX  98
PLATTSMOUTH    SUNNY     88  73  61 SE9       29.75F HX  96
$$

NEZ044-045-051>053-067-251900-
OMAHA AREA

CITY           SKY/WX    TMP DP  RH WIND       PRES   REMARKS
OMAHA EPPLEY   MOSUNNY   87  71  58 SE17      29.75S HX  93
6HR MIN TEMP:  72; 6HR MAX TEMP:  87;

BLAIR          SUNNY     84  71  66 SE13      29.76R
FREMONT        SUNNY     87  74  64 SE8       29.74F HX  95
MILLARD        SUNNY     87  75  66 SE12G18   29.74S HX  96
OFFUTT AFB     SUNNY     88  77  69 SE14      29.74F HX  99
PLATTSMOUTH    SUNNY     88  73  61 SE9       29.75F HX  96
WAHOO          FAIR      92  71  50 S6        29.73S HX  98
$$



USA.gov is the U.S. government's official web portal to all federal, state and local government web resources and services.